Theta_e
308 310 311 312 312 310 310 311 312 311 311 309 309 309 309 309 309 309 308 307 306 306 305 303 302 301 301 300 300 299 299 299 299 299 299 299 298 298 298 297 300 301 304 304
308 307 306 306 308 311 310 310 309 309 309 309 307 308 309 309 309 308 307 306 305 304 303 303 301 300 300 299 299 299 299 299 298 299 299 299 298 298 298 298 297 299 301 301
310 307 307 309 308 308 309 310 309 309 309 309 309 309 309 309 308 307 306 305 304 304 303 301 300 299 299 299 298 298 298 298 297 298 298 298 298 298 297 298 298 297 298 300
312 309 313 313 309 309 309 309 309 308 309 310 309 309 309 308 307 306 304 304 304 303 301 300 299 299 298 298 298 297 297 297 297 297 297 297 297 297 297 297 297 297 297 297
313 311 312 310 309 309 309 309 309 309 308 309 308 308 307 307 305 304 303 304 303 302 300 298 298 298 297 297 297 297 296 296 296 296 296 296 296 296 296 296 296 296 296 295
311 315 316 313 309 309 309 310 310 309 309 309 308 309 309 305 304 303 304 303 301 300 298 297 297 297 297 297 296 296 296 295 295 295 296 296 295 295 294 294 294 294 294 294
312 313 313 311 308 308 309 313 309 309 308 308 309 307 306 304 303 303 303 302 299 297 297 297 296 296 296 296 297 296 295 295 295 295 295 294 294 293 293 292 293 292 293 294
311 313 312 309 308 308 311 309 307 306 307 307 306 305 304 302 303 303 302 300 298 296 296 296 296 295 296 296 296 295 295 294 294 294 294 293 292 291 291 291 292 292 293 293
311 312 311 308 309 308 309 307 306 305 305 305 304 303 302 302 303 302 301 298 296 296 295 295 295 295 295 295 295 295 294 293 293 294 293 291 290 290 291 291 292 292 292 292
309 310 309 308 307 307 307 305 305 304 304 303 303 302 302 302 303 302 299 296 295 295 295 294 295 295 295 294 294 294 293 293 293 293 291 290 290 290 290 291 292 291 291 291
309 308 308 306 307 306 306 304 304 303 302 302 302 302 301 302 302 300 296 295 295 294 294 294 294 294 294 294 293 293 292 292 292 291 290 290 289 290 291 291 291 291 291 291
310 308 307 307 305 306 305 304 303 302 302 301 301 301 301 302 301 297 295 294 294 294 294 294 294 294 293 293 292 292 292 292 291 290 290 289 290 290 291 291 291 291 291 290
308 306 307 305 304 304 304 304 304 302 301 301 301 300 302 301 299 295 294 294 294 294 294 294 293 293 292 292 291 291 291 291 290 290 289 290 290 290 290 290 290 291 290 290
305 304 304 303 303 302 302 303 301 300 300 300 300 301 301 299 295 294 294 293 293 293 293 293 292 292 291 291 291 291 291 290 289 289 289 289 290 290 290 290 290 290 290 289
303 303 303 303 302 301 301 301 300 300 300 301 301 301 299 296 295 294 293 293 293 293 293 292 291 291 290 291 291 290 290 289 288 288 289 289 289 289 289 289 289 289 289 289
302 303 302 302 302 301 301 300 300 300 301 301 301 300 298 295 294 293 293 293 292 293 291 290 290 289 289 289 290 291 291 289 289 288 288 288 288 288 288 288 288 288 288 288
302 302 302 302 301 301 301 300 300 301 301 301 300 300 297 295 294 293 293 292 289 288 289 289 288 288 288 288 289 290 290 289 289 289 287 287 287 288 287 287 287 287 287 288
301 302 302 302 301 301 301 300 300 300 301 301 300 299 296 294 293 293 292 290 289 288 287 288 288 287 287 287 288 288 289 288 288 288 286 285 286 286 286 286 286 286 286 286
301 301 302 302 302 301 300 300 300 300 301 301 299 298 294 292 291 291 291 291 290 288 288 287 287 287 287 286 287 287 288 288 287 287 286 285 285 284 284 284 284 285 285 285
301 301 301 301 301 301 301 300 301 300 300 299 298 297 293 292 292 292 291 291 291 289 287 286 287 286 286 286 286 286 287 287 288 288 287 287 286 286 285 284 283 283 283 283
301 301 301 300 300 301 301 299 299 298 299 299 297 295 294 293 292 292 292 291 291 290 289 286 286 286 285 285 285 285 285 285 286 286 286 286 286 286 285 285 284 284 283 283
301 301 300 300 300 299 299 298 297 297 298 298 297 295 293 294 293 293 293 292 292 291 291 289 285 285 285 284 284 284 283 283 283 283 283 284 284 284 284 284 284 284 284 284
301 301 299 298 299 299 298 298 297 297 298 298 296 294 294 294 294 293 293 293 292 292 291 291 286 284 284 284 283 282 282 281 281 281 281 280 280 280 280 280 280 280 280 281
301 301 300 298 298 298 298 298 297 297 298 296 295 295 295 294 294 293 293 293 293 292 292 292 289 284 283 283 282 282 281 281 281 280 280 280 280 279 279 279 279 279 279 279
301 301 300 298 299 299 299 300 299 298 297 296 296 295 295 294 294 294 293 294 294 293 292 292 290 285 283 282 282 281 281 281 280 280 280 279 279 279 278 278 278 278 278 278
301 301 300 300 300 300 300 299 299 298 297 298 297 295 295 294 294 294 294 294 293 293 292 292 290 285 282 282 282 281 280 280 280 279 279 279 278 278 277 277 277 277 276 276
300 300 300 300 300 300 300 299 299 299 298 298 298 296 295 294 294 294 294 294 294 293 292 291 290 285 282 282 281 280 280 280 279 279 278 278 277 277 277 277 277 276 276 276
Wind_Speed
5 6 3 8 13 14 14 10 7 2 8 1 3 2 4 3 4 6 8 10 12 15 18 19 20 20 20 21 23 24 24 25 27 28 28 29 32 39 36 31 32 35 35 38
4 4 4 7 10 13 16 15 14 13 12 8 8 4 7 5 5 7 8 11 13 15 17 19 19 20 20 22 23 23 24 25 26 27 30 30 33 33 35 41 34 31 33 38
4 5 2 7 20 20 17 17 15 16 11 8 6 8 7 6 6 8 8 11 14 14 16 18 18 19 20 21 22 23 24 25 28 29 30 30 31 32 35 37 35 33 30 31
5 8 4 2 1 16 19 15 17 12 9 7 6 4 5 7 7 5 8 12 12 14 16 17 18 19 20 22 22 23 24 26 27 28 30 32 33 34 35 35 37 39 37 34
5 9 6 9 7 8 15 16 14 15 12 10 7 4 12 10 3 5 10 9 11 13 15 17 17 18 20 21 22 22 24 26 28 30 32 33 33 32 31 32 34 34 35 37
4 4 6 6 9 9 7 8 17 19 15 12 11 6 6 4 2 7 5 8 11 13 14 15 16 18 19 20 21 23 25 27 29 31 33 34 33 34 35 35 36 35 35 33
8 6 6 7 13 14 7 3 13 15 13 13 10 10 3 4 7 4 5 8 10 11 12 14 16 18 18 20 20 23 25 28 29 31 33 33 34 35 33 32 31 33 33 34
9 8 9 19 16 8 8 13 14 10 10 10 9 7 6 8 6 5 7 9 10 11 13 15 15 16 17 19 21 23 26 28 30 31 33 34 34 36 38 38 38 39 40 40
11 7 3 27 6 15 10 13 9 9 8 10 9 8 8 7 6 6 7 8 8 11 13 14 14 14 17 19 21 23 25 27 30 32 32 34 36 39 38 35 36 39 41 42
9 11 13 22 12 18 12 12 10 9 9 9 9 9 8 8 7 6 7 7 8 10 12 13 14 15 15 18 20 22 24 26 29 31 37 35 36 36 36 37 39 41 38 43
10 5 17 16 22 16 15 12 12 11 10 10 10 11 9 9 7 6 5 6 7 9 10 12 13 14 16 17 20 21 23 25 28 31 34 37 36 35 36 33 34 35 35 37
9 18 13 16 22 22 19 18 15 14 12 11 11 11 10 9 7 5 4 5 6 7 9 11 13 14 15 16 19 20 22 25 28 35 35 38 38 40 36 33 32 31 31 33
9 8 19 9 12 21 22 21 18 15 14 14 13 12 11 10 8 6 3 4 4 6 8 10 11 13 14 17 19 19 21 22 28 32 33 37 36 39 41 39 33 30 32 34
13 13 13 15 15 15 18 18 17 15 15 14 14 14 13 10 8 5 4 3 3 5 7 8 10 11 14 18 18 18 19 22 25 30 30 32 33 35 36 37 39 37 36 36
23 21 13 16 14 18 17 18 18 17 15 15 16 16 13 10 9 6 5 4 3 5 6 8 9 11 15 18 18 18 18 21 26 27 28 28 29 30 31 33 33 34 38 38
24 24 21 18 19 20 20 20 20 19 18 18 18 16 14 11 9 7 5 4 4 4 6 8 9 12 15 17 18 18 20 22 23 24 26 27 28 29 30 30 33 33 35 37
26 26 26 23 23 22 24 23 22 21 20 20 19 16 14 13 10 8 7 6 6 7 7 7 10 12 14 16 18 20 21 18 20 19 23 23 25 27 28 28 28 30 30 32
28 29 27 25 26 27 25 24 22 23 23 21 20 19 17 16 13 11 10 8 7 7 8 9 10 11 13 15 17 19 17 16 16 16 20 20 21 21 24 25 26 27 29 29
29 28 24 23 22 26 28 26 25 25 23 25 25 22 17 15 14 12 10 9 8 8 9 9 11 11 12 14 16 17 16 16 16 16 19 20 21 20 21 22 23 24 26 28
29 28 26 25 23 25 25 26 27 28 27 24 22 19 18 17 14 13 11 10 9 9 11 11 11 11 11 13 15 15 16 16 17 17 18 18 19 20 21 22 22 23 23 24
29 28 27 28 26 26 27 31 29 26 25 24 22 19 16 14 14 13 12 12 11 10 11 12 12 12 11 13 14 14 15 15 16 16 16 17 18 19 20 21 22 23 25 24
24 26 29 30 30 32 28 25 25 26 25 24 21 18 17 15 14 13 13 13 14 10 11 13 13 12 12 13 13 13 13 14 14 14 15 15 16 17 18 19 20 21 22 23
22 22 27 32 35 29 29 22 24 26 26 24 22 20 18 14 13 13 13 11 13 13 12 13 13 13 13 13 13 12 12 12 12 12 13 14 14 15 16 18 19 20 21 22
20 20 21 24 25 24 25 25 26 25 24 23 20 18 17 16 13 12 12 13 12 13 14 14 13 13 13 12 11 11 10 10 10 10 10 11 12 13 15 16 18 19 20 21
20 20 21 25 26 25 25 24 22 23 25 22 21 20 18 14 12 11 13 13 12 14 16 14 14 13 13 12 10 10 9 8 8 8 9 10 11 12 14 15 17 18 19 21
22 23 23 26 25 23 24 24 23 21 21 19 18 19 17 15 14 15 17 15 14 15 17 15 14 13 12 11 10 9 8 8 7 7 8 9 10 11 13 14 16 17 19 20
23 23 23 24 23 24 24 23 22 20 20 19 17 17 16 15 17 18 19 19 19 18 18 17 16 15 14 12 11 9 8 8 7 7 7 8 9 10 12 13 14 16 17 19
Wind_Direction
104 103 125 179 194 198 212 211 214 246 241 192 159 254 271 263 261 283 303 323 331 334 335 337 340 342 342 340 340 340 339 339 338 335 333 333 333 335 333 331 326 311 301 308
189 177 214 232 233 222 222 225 235 244 250 256 246 204 214 228 263 292 305 321 328 331 333 336 338 339 338 336 337 337 335 335 334 333 332 332 333 328 324 327 324 322 312 300
149 162 177 269 234 226 227 222 234 237 244 178 189 204 227 246 273 297 310 319 325 329 332 334 336 334 333 334 334 332 332 331 332 333 332 331 328 325 323 317 314 316 315 306
141 149 228 203 320 218 226 226 220 237 242 199 214 215 235 258 276 300 318 318 322 327 331 332 332 331 330 331 332 331 332 331 331 331 328 327 326 323 320 315 316 321 312 303
157 205 301 195 207 194 195 222 216 217 210 206 195 216 252 252 192 286 312 315 320 325 328 328 330 329 329 330 331 334 333 333 332 330 328 326 324 322 319 316 313 310 304 307
175 209 220 96 147 174 170 251 199 202 200 187 184 221 117 137 278 304 305 313 320 325 327 327 327 330 330 331 334 332 333 332 331 330 328 327 325 324 319 316 313 313 309 312
187 223 266 146 154 153 195 119 155 174 186 190 203 225 1 334 312 293 299 315 319 324 327 327 328 330 330 330 329 330 332 332 331 330 329 329 325 324 323 320 316 314 313 317
207 208 243 158 159 192 120 135 142 161 176 189 209 230 268 283 263 271 299 312 319 324 327 330 330 330 329 327 329 331 333 332 332 332 333 330 328 329 331 330 329 329 328 326
193 203 142 166 170 180 160 155 160 169 177 192 209 232 254 237 238 270 297 309 318 325 330 331 331 332 329 329 331 332 332 333 334 334 335 336 334 336 337 337 336 334 331 325
175 210 175 184 181 186 179 178 180 186 194 203 231 235 230 230 232 265 295 305 317 329 330 330 333 333 331 331 332 332 334 336 337 337 338 341 342 345 344 341 336 336 334 335
210 166 178 196 203 194 194 195 191 197 212 234 228 216 233 230 226 261 282 302 319 327 328 331 332 334 334 333 333 335 339 339 340 339 343 343 346 346 346 343 341 341 339 336
212 191 195 199 204 206 205 205 206 215 217 210 216 220 230 217 221 236 259 295 315 323 327 331 335 332 332 331 336 341 342 341 340 350 348 351 352 349 351 350 351 350 348 343
195 182 194 186 191 205 213 213 214 218 213 212 217 221 211 211 215 216 253 284 308 319 327 331 328 330 330 332 342 344 340 340 345 350 353 354 354 354 350 352 357 360 357 352
192 170 187 187 187 196 205 203 202 208 216 219 215 201 199 203 210 209 232 261 289 313 322 321 323 327 330 334 342 339 339 339 345 353 355 350 357 358 358 357 356 1 5 2
209 203 201 193 190 192 191 193 199 206 206 198 192 190 193 196 203 211 222 246 277 304 309 312 320 326 330 339 344 337 339 336 345 351 356 352 355 358 360 3 4 6 7 9
202 201 198 197 198 200 197 198 199 201 195 190 188 189 193 192 199 205 215 238 273 284 293 309 320 325 334 342 343 341 334 336 347 340 351 354 356 358 359 359 2 7 11 12
203 199 203 209 206 203 203 202 204 201 196 195 194 192 188 188 193 201 209 238 270 289 298 306 315 325 334 341 342 340 340 342 337 339 340 348 352 356 356 359 3 6 7 11
210 212 216 214 209 204 202 200 201 201 199 196 192 189 190 195 202 203 225 258 279 288 291 293 309 323 330 335 338 339 345 338 336 339 341 349 351 354 353 355 1 5 6 9
209 209 210 211 209 205 201 197 195 193 194 192 196 203 208 209 215 225 240 258 277 291 294 302 309 314 323 329 332 336 338 338 341 341 348 352 356 358 357 359 1 6 10 10
212 215 215 213 209 203 194 192 189 193 198 200 201 202 204 211 218 228 242 257 272 285 299 301 302 308 315 322 327 330 333 336 340 344 349 353 357 360 1 4 4 5 7 11
210 210 210 207 203 196 191 192 192 195 200 200 202 206 208 211 222 233 247 260 269 276 297 301 300 301 308 316 320 322 328 330 334 338 342 348 352 356 359 2 5 7 10 11
198 201 203 200 198 191 191 193 201 204 202 201 201 202 203 214 228 242 256 263 275 277 290 300 299 298 302 310 313 318 322 326 331 334 337 342 346 350 352 355 359 3 7 11
190 194 199 198 199 193 199 197 204 201 202 199 201 203 207 220 233 243 253 260 256 269 277 290 297 295 298 303 307 313 322 329 335 340 345 350 355 359 1 2 4 5 6 7
182 184 188 192 187 185 186 185 193 198 195 197 201 203 209 215 227 238 241 264 263 265 268 285 294 288 288 293 300 308 315 325 333 340 348 354 358 2 4 5 7 9 11 14
178 177 172 170 171 176 173 176 175 184 189 196 201 206 212 219 231 240 245 261 264 260 266 276 284 281 278 280 287 294 302 313 324 333 341 348 355 360 2 4 6 7 9 11
177 173 174 173 173 171 171 172 174 180 184 189 197 210 213 222 234 235 249 256 260 260 265 270 275 272 267 270 276 279 288 299 311 323 332 341 350 356 360 1 4 7 8 8
181 176 170 171 172 169 172 175 177 181 186 192 195 213 219 227 237 240 246 249 250 254 259 265 268 263 259 257 260 265 275 286 297 311 324 335 344 351 357 360 2 4 6 6